Regional Weather Roundup
Issued by NWS Cleveland, OH

Home | Current Version | Previous Version | Graphics & Text | Print | Product List | Glossary On
Versions: 1 2 3 4 5 6 7 8 9 10 11 12 13 14 15 16 17 18 19 20 21 22 23 24 25 26 27 28 29 30 31 32 33 34 35 36 37 38 39 40 41 42 43 44 45 46 47 48 49 50
000
ASUS41 KCLE 070600
RWRCLE
OHIO REGIONAL WEATHER ROUNDUP
NATIONAL WEATHER SERVICE WILMINGTON, OH
100 AM EST SUN FEB 07 2016

NOTE: "FAIR" INDICATES FEW OR NO CLOUDS BELOW 12,000 FEET WITH NO
SIGNIFICANT WEATHER AND/OR OBSTRUCTIONS TO VISIBILITY.

OHZ001>008-015>018-024>027-034-035-043-044-070700-
   NORTHWEST OHIO

CITY           SKY/WX    TMP DP  RH WIND       PRES   REMARKS
DEFIANCE       FAIR      31  24  75 S5        30.13F WCI  26
FINDLAY        FAIR      29  22  75 S8        30.14F WCI  21
TOLEDO EXPRESS CLOUDY    29  23  78 S5        30.13F WCI  24
TOLEDO EXEC    CLOUDY    27  22  81 S8        30.14F WCI  19
LIMA           FAIR      32  24  72 S9        30.14F WCI  24
$$

OHZ009>014-019>023-028>033-038-089-070700-
   NORTHEAST OHIO

CITY           SKY/WX    TMP DP  RH WIND       PRES   REMARKS
CLE-HOPKINS    FAIR      31  18  58 S7        30.19F WCI  24
CLE-LAKEFRONT  FAIR      34  19  54 S8        30.16F WCI  27
CUY CO. ARPT   NOT AVBL
LORAIN-ELYRIA  FAIR      29  19  66 S6        30.16F WCI  23
ASHTABULA      FAIR      30  20  66 S6        30.16F WCI  24
AKRON-CANTON   FAIR      28  16  60 SW8       30.16F WCI  20
WOOSTER        NOT AVBL
MANSFIELD      FAIR      29  20  69 SW7       30.15F WCI  22
YOUNGSTOWN     FAIR      29  16  58 SW6       30.16F WCI  23
$$

OHZ042-051>053-060>062-070>072-077>081-070700-
  SOUTHWEST OHIO

CITY           SKY/WX    TMP DP  RH WIND       PRES   REMARKS
CINC-COVINGTON FAIR      34  23  64 S8        30.20F WCI  27
CINC-LUNKEN    FAIR      28  25  88 CALM      30.23F
HAMILTON       FAIR      27  23  85 CALM      30.22S
DAYTON         NOT AVBL
WRIGHT-PAT AFB NOT AVBL
DAYTON GENERAL FAIR      32  21  64 S6        30.18F WCI  26
WILMINGTON     FAIR      32  23  69 SW5       30.19F WCI  27
$$

OHZ036-037-039>041-045>050-054>059-063>069-073>076-082>088-070700-
  CENTRAL AND SOUTHEAST OHIO

CITY           SKY/WX    TMP DP  RH WIND       PRES   REMARKS
COLUMBUS       FAIR      28  20  71 CALM      30.20F
OSU AIRPORT    FAIR      28  20  71 S5        30.19F WCI  23
BOLTON FIELD   NOT AVBL
RICKENBACK AFB NOT AVBL
NEWARK         FAIR      25  18  74 CALM      30.19F
MARION         FAIR      28  19  69 S7        30.17F WCI  21
LANCASTER      FAIR      25  20  81 CALM      30.20F
ZANESVILLE     FAIR      28  17  63 S3        30.20F
NEW PHILLY     FAIR      25  19  78 E5        30.20F WCI  19
$$



USA.gov is the U.S. government's official web portal to all federal, state and local government web resources and services.